Overview Statistics Trail Chart Weather Telemetry Raw packets
 

This is the latest recevied weather packets stored in our database for station/object K1BES. If no packets are shown the sender has not sent any weather packets the latest 10 day(s).

<< 72 73 74 75 76 77 78 >>
Time Temp. Humidity Pressure Rain* Wind** Luminosity Snow
1788130070 25° C 93% 1017.8 hPa 0 mm - 44 W/m² -
1788129766 25° C 93% 1018 hPa 0 mm - 49 W/m² -
1788129463 25° C 93% 1017.9 hPa 0 mm - 54 W/m² -
1788129158 25° C 93% 1017.7 hPa 0 mm - 61 W/m² -
1788128852 25° C 93% 1017.9 hPa 0 mm - 64 W/m² -
1788128547 25° C 93% 1017.8 hPa 0 mm - 66 W/m² -
1788128243 25° C 93% 1017.9 hPa 0 mm - 68 W/m² -
1788127940 25° C 94% 1017.8 hPa 0 mm - 70 W/m² -
1788127635 25° C 93% 1018 hPa 0 mm - 74 W/m² -
1788127337 25° C 93% 1017.6 hPa 0 mm - 79 W/m² -
1788127033 25° C 93% 1017.4 hPa 0 mm - 85 W/m² -
1788126728 25° C 93% 1017.6 hPa 0 mm - 90 W/m² -
1788126423 25° C 93% 1017.6 hPa 0 mm - 95 W/m² -
1788126123 25° C 94% 1017.6 hPa 0 mm - 98 W/m² -
1788125822 25° C 94% 1017.7 hPa 0 mm - 99 W/m² -
1788125517 25° C 94% 1017.8 hPa 0 mm - 101 W/m² -
1788125214 25° C 94% 1017.7 hPa 0 mm - 103 W/m² -
1788124909 25° C 94% 1017.8 hPa 0 mm - 107 W/m² -
1788124609 25° C 94% 1017.9 hPa 0 mm - 111 W/m² -
1788124308 25° C 94% 1018 hPa 0 mm - 114 W/m² -
1788124004 25° C 94% 1018 hPa 0 mm - 115 W/m² -
1788123703 25° C 94% 1018.1 hPa 0 mm - 118 W/m² -
1788123400 25° C 94% 1018.1 hPa 0 mm - 123 W/m² -
1788123096 25° C 94% 1018.3 hPa 0 mm - 136 W/m² -
1788122795 25° C 93% 1018.2 hPa 0 mm - 157 W/m² -

* Rain latest hour (hover to see other rain measurements)
** Current wind speed in m/s (hover to see current wind gust speed)